Weather reports worldwide

Advertisment
Wittering, United Kingdom (3462): temperature & dewpoint: 10.09.2019 04:00:00 - 16.09.2019 04:00:00 (BST)Wittering, United Kingdom (3462): temperature -20cm & temperature -100cm: 10.09.2019 04:00:00 - 16.09.2019 04:00:00 (BST)Wittering, United Kingdom (3462): wind speed & gusts: 10.09.2019 04:00:00 - 16.09.2019 04:00:00 (BST)Wittering, United Kingdom (3462): wind direction: 10.09.2019 04:00:00 - 16.09.2019 04:00:00 (BST)Wittering, United Kingdom (3462): reduced air pressure: 10.09.2019 04:00:00 - 16.09.2019 04:00:00 (BST)Wittering, United Kingdom (3462): visibility: 10.09.2019 04:00:00 - 16.09.2019 04:00:00 (BST)Wittering, United Kingdom (3462): sunshine duration: 10.09.2019 04:00:00 - 16.09.2019 04:00:00 (BST)Wittering, United Kingdom (3462): precipitation: 10.09.2019 04:00:00 - 16.09.2019 04:00:00 (BST)
Date & Time tt [°C] td [°C] tt -20cm [°C] tt -100cm [°C] ff [km/h] ff [kn] fx [km/h] fx [kn] dd ppp [hPa] vv [km] sd [min] rr [mm]
16.09.2019 04:00:00 - - - - - - - - - - - - -
16.09.2019 03:00:00 - - - - - - - - - - - - -
16.09.2019 02:00:00 - - - - - - - - - - - - -
16.09.2019 01:00:00 - - - - - - - - - - - - -
16.09.2019 00:00:00 - - - - - - - - - - - - -
15.09.2019 23:00:00 - - - - - - - - - - - - -
15.09.2019 22:00:00 - - - - - - - - - - - - -
15.09.2019 21:00:00 - - - - - - - - - - - - -
15.09.2019 20:00:00 - - - - - - - - - - - - -
15.09.2019 19:00:00 - - - - - - - - - - - - -
15.09.2019 18:00:00 - - - - - - - - - - - - -
15.09.2019 17:00:00 - - - - - - - - - - - - -
15.09.2019 16:00:00 - - - - - - - - - - - - -
15.09.2019 15:00:00 - - - - - - - - - - - - -
15.09.2019 14:00:00 - - - - - - - - - - - - -
15.09.2019 13:00:00 - - - - - - - - - - - - -
15.09.2019 12:00:00 - - - - - - - - - - - - -
15.09.2019 11:00:00 - - - - - - - - - - - - -
15.09.2019 10:00:00 - - - - - - - - - - - - -
15.09.2019 09:00:00 - - - - - - - - - - - - -
15.09.2019 08:00:00 - - - - - - - - - - - - -
15.09.2019 07:00:00 - - - - - - - - - - - - -
15.09.2019 06:00:00 - - - - - - - - - - - - -
15.09.2019 05:00:00 - - - - - - - - - - - - -
15.09.2019 04:00:00 - - - - - - - - - - - - -
15.09.2019 03:00:00 - - - - - - - - - - - - -
15.09.2019 02:00:00 - - - - - - - - - - - - -
15.09.2019 01:00:00 - - - - - - - - - - - - -
15.09.2019 00:00:00 - - - - - - - - - - - - -
14.09.2019 23:00:00 - - - - - - - - - - - - -
14.09.2019 22:00:00 - - - - - - - - - - - - -
14.09.2019 21:00:00 - - - - - - - - - - - - -
14.09.2019 20:00:00 - - - - - - - - - - - - -
14.09.2019 19:00:00 - - - - - - - - - - - - -
14.09.2019 18:00:00 - - - - - - - - - - - - -
14.09.2019 17:00:00 - - - - - - - - - - - - -
14.09.2019 16:00:00 - - - - - - - - - - - - -
14.09.2019 15:00:00 - - - - - - - - - - - - -
14.09.2019 14:00:00 - - - - - - - - - - - - -
14.09.2019 13:00:00 - - - - - - - - - - - - -
14.09.2019 12:00:00 - - - - - - - - - - - - -
14.09.2019 11:00:00 - - - - - - - - - - - - -
14.09.2019 10:00:00 - - - - - - - - - - - - -
14.09.2019 09:00:00 - - - - - - - - - - - - -
14.09.2019 08:00:00 - - - - - - - - - - - - -
14.09.2019 07:00:00 - - - - - - - - - - - - -
14.09.2019 06:00:00 6,2 4,8 - - 4 2 - - SW 1034,8 24 0 0,0
14.09.2019 05:00:00 7,1 5,6 - - 0 0 - - N 1035,1 26 0 0,0
14.09.2019 04:00:00 7,7 6,2 - - 0 0 - - N 1035,4 29 0 0,0
14.09.2019 03:00:00 7,9 5,6 - - 5 3 - - WNW 1035,9 30 0 0,0
14.09.2019 02:00:00 9,4 6,5 - - 4 2 - - SW 1035,9 25 0 0,0
14.09.2019 01:00:00 9,0 6,0 - - 5 3 - - S 1036,3 29 - 0,0
14.09.2019 00:00:00 10,7 7,1 - - 4 2 - - SE 1036,1 30 0 0,0
13.09.2019 23:00:00 10,8 7,7 - - 5 3 - - ENE 1036,2 29 0 0,0
13.09.2019 22:00:00 11,6 7,2 - - 9 5 - - NNE 1036,5 35 0 0,0
13.09.2019 21:00:00 12,7 7,2 - - 5 3 - - ENE 1036,0 40 0 0,0
13.09.2019 20:00:00 14,9 6,6 - - 5 3 - - NNE 1035,6 35 6 0,0
13.09.2019 19:00:00 16,6 6,0 - - 8 4 - - NE 1035,0 35 60 0,0
13.09.2019 18:00:00 18,0 6,0 - - 11 6 - - NE 1035,1 35 60 0,0
13.09.2019 17:00:00 18,6 5,4 - - 11 6 - - NNE 1035,0 35 60 0,0
13.09.2019 16:00:00 18,7 5,1 - - 13 7 - - NNE 1035,3 40 60 0,0
13.09.2019 15:00:00 18,8 4,1 - - 11 6 - - N 1035,1 40 60 0,0
13.09.2019 14:00:00 18,2 5,9 - - 11 6 - - N 1035,2 45 60 0,0
13.09.2019 13:00:00 17,3 5,8 - - 13 7 - - NE 1035,6 40 60 0,0
13.09.2019 12:00:00 16,7 5,3 - - 15 8 - - N 1035,4 40 60 0,0
13.09.2019 11:00:00 15,3 6,4 - - 15 8 - - N 1035,4 40 60 0,0
13.09.2019 10:00:00 13,8 7,5 16,0 15,7 15 8 - - NNW 1035,2 40 60 0,0
13.09.2019 09:00:00 12,8 8,6 - - 15 8 - - NNW 1034,5 35 60 0,0
13.09.2019 08:00:00 10,9 8,5 - - 13 7 - - NW 1033,7 30 42 0,0
13.09.2019 07:00:00 9,8 8,3 - - 11 6 - - NW 1032,9 29 0 0,0
13.09.2019 06:00:00 10,5 8,9 - - 16 9 - - NW 1032,3 28 0 0,0
13.09.2019 05:00:00 10,8 9,3 - - 15 8 - - WNW 1031,7 29 0 0,0
13.09.2019 04:00:00 12,1 10,1 - - 15 8 - - WNW 1031,1 30 0 0,0
13.09.2019 03:00:00 12,7 10,4 - - 15 8 - - WNW 1030,1 40 0 0,0
13.09.2019 02:00:00 13,8 11,5 - - 16 9 - - WNW 1029,5 45 0 0,0
13.09.2019 01:00:00 15,8 12,6 - - 18 10 - - WNW 1028,6 60 - 0,0
13.09.2019 00:00:00 17,1 15,3 - - 18 10 - - W 1027,6 35 0 0,0
12.09.2019 23:00:00 17,5 14,6 - - 22 12 - - WSW 1027,0 30 0 0,0
12.09.2019 22:00:00 17,6 13,8 - - 22 12 - - WSW 1026,4 30 0 0,0
12.09.2019 21:00:00 18,5 13,0 - - 24 13 - - WSW 1025,7 29 0 0,0
12.09.2019 20:00:00 19,2 12,9 - - 28 15 - - SW 1025,1 30 0 0,0
12.09.2019 19:00:00 20,3 12,7 - - 24 13 - - SW 1024,5 30 6 0,0
12.09.2019 18:00:00 21,1 12,9 - - 31 17 52 28 WSW 1023,9 35 48 0,0
12.09.2019 17:00:00 22,1 15,1 - - 37 20 52 28 SW 1023,5 50 36 0,0
12.09.2019 16:00:00 22,0 15,4 - - 39 21 54 29 WSW 1023,7 45 54 0,0
12.09.2019 15:00:00 22,9 14,9 - - 37 20 54 29 SW 1023,7 10 48 0,0
12.09.2019 14:00:00 21,7 15,1 - - 34 18 46 25 SW 1024,2 40 6 0,0
12.09.2019 13:00:00 21,9 14,8 - - 29 16 54 29 SW 1024,3 10 42 0,0
12.09.2019 12:00:00 21,2 13,9 - - 34 18 52 28 SW 1024,5 30 42 0,0
12.09.2019 11:00:00 19,1 14,5 - - 26 14 - - WSW 1025,1 10 36 0,0
12.09.2019 10:00:00 18,1 13,4 15,2 15,7 24 13 - - SW 1024,9 10 60 0,0
12.09.2019 09:00:00 14,7 12,2 - - 21 11 - - SSW 1024,6 19 42 0,0
12.09.2019 08:00:00 13,7 12,0 - - 18 10 - - SW 1024,4 10 36 0,0
12.09.2019 07:00:00 10,8 10,2 - - 5 3 - - WSW 1024,4 15 0 0,0
12.09.2019 06:00:00 11,9 10,8 - - 15 8 - - WSW 1023,6 19 0 0,0
12.09.2019 05:00:00 11,9 10,3 - - 16 9 - - SW 1023,3 22 0 0,0
12.09.2019 04:00:00 10,9 9,3 - - 11 6 - - SW 1023,6 24 0 0,0
12.09.2019 03:00:00 11,7 9,7 - - 15 8 - - SW 1023,5 23 0 0,0
12.09.2019 02:00:00 11,0 9,1 - - 9 5 - - WSW 1023,2 25 0 0,0
12.09.2019 01:00:00 11,3 9,3 - - 8 4 - - WSW 1022,6 23 - 0,0
12.09.2019 00:00:00 11,4 9,3 - - 9 5 - - SW 1022,2 30 0 0,0
11.09.2019 23:00:00 11,6 9,3 - - 11 6 - - WSW 1022,0 30 0 0,0
11.09.2019 22:00:00 12,2 8,6 - - 2 1 - - SW 1021,4 25 0 0,0
11.09.2019 21:00:00 14,0 9,3 - - 5 3 - - WSW 1020,9 17 0 0,0
11.09.2019 20:00:00 16,2 9,5 - - 9 5 - - NNW 1020,1 30 12 0,0
11.09.2019 19:00:00 18,4 10,7 - - 13 7 - - NW 1019,1 35 48 0,0
11.09.2019 18:00:00 20,6 11,4 - - 21 11 - - WNW 1018,1 35 60 0,0
11.09.2019 17:00:00 22,1 10,7 - - 29 16 50 27 W 1017,2 10 60 0,0
11.09.2019 16:00:00 23,3 12,2 - - 31 17 54 29 W 1016,5 10 54 0,0
11.09.2019 15:00:00 23,6 11,9 - - 39 21 50 27 W 1016,0 10 30 0,0
11.09.2019 14:00:00 22,2 14,7 - - 31 17 46 25 WSW 1015,8 10 48 0,0
11.09.2019 13:00:00 21,7 16,7 - - 34 18 54 29 WSW 1015,6 10 24 0,0
11.09.2019 12:00:00 19,6 15,1 - - 35 19 54 29 WSW 1015,3 10 6 0,0
11.09.2019 11:00:00 18,9 15,0 - - 29 16 48 26 SW 1015,1 10 6 0,0
11.09.2019 10:00:00 17,6 14,3 15,0 15,7 28 15 - - SW 1014,9 10 0 0,0
11.09.2019 09:00:00 15,2 13,2 - - 22 12 - - SSW 1014,8 10 0 0,0
11.09.2019 08:00:00 14,5 12,4 - - 24 13 - - SW 1014,8 27 12 0,0
11.09.2019 07:00:00 13,1 11,1 - - 31 17 - - SW 1014,2 27 0 0,0
11.09.2019 06:00:00 13,1 10,5 - - 31 17 - - SW 1014,8 27 0 0,0
11.09.2019 05:00:00 12,9 9,7 - - 22 12 - - SSW 1015,3 30 0 0,0
11.09.2019 04:00:00 13,0 8,9 - - 24 13 - - SW 1016,4 35 0 0,0
11.09.2019 03:00:00 13,6 9,7 - - 22 12 - - SW 1016,9 35 0 0,0
11.09.2019 02:00:00 13,6 8,7 - - 16 9 - - SSW 1017,4 35 0 0,0
11.09.2019 01:00:00 13,8 8,3 - - 22 12 - - SW 1017,7 35 - 0,0
11.09.2019 00:00:00 13,5 9,1 - - 11 6 - - SW 1017,8 35 0 0,0
10.09.2019 23:00:00 13,2 9,5 - - 15 8 - - WSW 1018,6 35 0 0,0
10.09.2019 22:00:00 11,2 9,2 - - 9 5 - - SSW 1018,5 30 0 0,0
10.09.2019 21:00:00 11,9 9,0 - - 8 4 - - SW 1018,9 30 0 0,0
10.09.2019 20:00:00 11,9 7,5 - - 8 4 - - SW 1019,0 30 12 0,0
10.09.2019 19:00:00 15,3 8,5 - - 13 7 - - W 1018,7 35 12 0,0
10.09.2019 18:00:00 16,6 8,7 - - 16 9 - - WNW 1018,8 40 0 0,0
10.09.2019 17:00:00 16,8 8,9 - - 15 8 - - W 1018,6 35 6 0,0
10.09.2019 16:00:00 16,9 9,2 - - 22 12 - - W 1019,0 10 0 0,0
10.09.2019 15:00:00 17,5 10,1 - - 21 11 - - WNW 1018,7 10 0 0,0
10.09.2019 14:00:00 16,5 9,3 - - 21 11 - - W 1018,6 10 18 0,0
10.09.2019 13:00:00 18,3 10,6 - - 15 8 - - W 1018,3 30 42 0,0
10.09.2019 12:00:00 16,0 10,7 - - 18 10 - - WNW 1018,7 28 12 0,0
10.09.2019 11:00:00 15,6 11,4 - - 13 7 - - NW 1018,6 10 48 0,0
10.09.2019 10:00:00 13,7 12,9 14,7 15,9 9 5 - - WNW 1018,5 5 12 0,0
10.09.2019 09:00:00 11,5 11,3 - - 8 4 - - W 1017,9 3,0 0 0,0
10.09.2019 08:00:00 10,1 10,0 - - 9 5 - - W 1017,5 4,4 0 0,0
10.09.2019 07:00:00 9,1 9,1 - - 15 8 - - W 1016,8 4,4 0 0,0
10.09.2019 06:00:00 7,2 7,1 - - 5 3 - - W 1016,2 4,7 0 0,0
10.09.2019 05:00:00 8,3 8,3 - - 11 6 - - W 1015,8 4,1 0 0,0
10.09.2019 04:00:00 8,6 8,6 - - 9 5 - - WNW 1015,5 2,9 0 0,0

tt = temperature
td = dewpoint
tt -20cm = temperature -20cm
tt -100cm = temperature -100cm
ff = wind speed
fx = gusts
dd = wind direction
ppp = reduced air pressure
vv = visibility
sd = sunshine duration
rr = precipitation

Next stations